[[{"header":{"parameterUnit":"m.s-1","parameterCategory":1,"la1":30.2991,"la2":30.254,"lo1":-89.0895,"lo2":-89.0444,"dy":0.0017,"dx":0.0017,"nx":28,"ny":28,"refTime":"2024-08-10T03:00:00:Z","depth":0,"parameterNumber":2,"parameterNumberName":"U-component_of_WINDS"},"data":[0,0,0,0,0,0,0,0,0,0,0,0,0,0,0,0,0,0,0,0,0,0,0,0,0,0,0,0,0,0,0,0,0,0,0,0,0,0,0,0,0,0,0,0,0,0,0,0,0,0,0,0,0,0,0,0,0,0,0.2305,0.2304,0,0.2196,0.2195,0.2194,0.2159,0.2159,0.216,0.216,0.2046,0.2043,0.204,0,0,0,0,0,0,0,0,0,0,0,0,0,0.2481,0.2478,0.2305,0.2304,0.2303,0.2197,0.2195,0.2194,0.2159,0.2159,0.216,0.216,0.2048,0.2043,0.2039,0,0,0,0,0,0,0,0,0,0,0,0,0,0.2392,0.2477,0.2306,0.2273,0.2268,0.2197,0.2195,0.2193,0.2159,0.2159,0.216,0.2161,0.2049,0.2044,0.2039,0.1991,0,0,0.2023,0.202,0,0,0,0,0,0,0,0,0.2397,0.2385,0.2279,0.2275,0.227,0.2192,0.2215,0.2125,0.2158,0.22,0.216,0.2161,0.2094,0.2085,0.2063,0.1986,0.1981,0.2022,0.2019,0.2017,0.2015,0,0,0,0,0,0,0,0.2403,0.239,0.2262,0.2277,0.2272,0.2262,0.2251,0.2198,0.2144,0.2197,0.2194,0.2182,0.2092,0.2068,0.206,0.198,0.2022,0.2018,0.2014,0.2012,0.1858,0.1857,0,0,0,0,0,0,0.2415,0.2395,0.2266,0.2259,0.2337,0.2259,0.2245,0.2216,0.2145,0.2135,0.2181,0.218,0.2077,0.2066,0.2056,0.1995,0.2017,0.2012,0.2009,0.1859,0.1857,0.1856,0,0,0,0,0,0,0.2419,0.2404,0.227,0.2326,0.2308,0.2255,0.2222,0.2214,0.219,0.2133,0.2123,0.2167,0.2077,0.2063,0.2008,0.1991,0.201,0.2005,0.186,0.1858,0.1857,0.1874,0,0,0,0,0,0,0.2424,0.2405,0.2387,0.2326,0.2306,0.2224,0.2221,0.2211,0.2181,0.2179,0.2117,0.2107,0.2077,0.2016,0.2003,0.1984,0.2001,0.1861,0.1859,0.1857,0.1874,0.1873,0.1872,0,0,0,0,0,0.2431,0.2396,0.2387,0.2371,0.2282,0.2223,0.2212,0.2177,0.218,0.2161,0.2124,0.2109,0.1995,0.201,0.1995,0.1975,0.1862,0.186,0.1857,0.1875,0.1873,0.1872,0,0,0,0,0,0,0.2456,0.2387,0.2376,0.2321,0.2278,0.2218,0.2192,0.2177,0.2132,0.2132,0.2091,0.2077,0.2024,0.1994,0.2012,0.1925,0.1928,0.1922,0.1946,0.1944,0.1943,0.1951,0.1996,0,0,0,0,0,0.2456,0.2414,0.2356,0.2313,0.2293,0.2246,0.222,0.2197,0.2151,0.2132,0.2092,0.2047,0.2,0.1971,0.1925,0.1871,0.1856,0.1849,0.1848,0.1847,0.1842,0.181,0.1806,0.1849,0.1849,0.1849,0,0,0.2453,0.2411,0.2387,0.2317,0.2282,0.2239,0.2231,0.2187,0.2154,0.2125,0.207,0.2039,0.1986,0.193,0.1904,0.1904,0.1827,0.1844,0.1844,0.184,0.1808,0.1804,0.18,0.1848,0.1848,0.1848,0,0,0.2428,0.2392,0.2352,0.2316,0.2263,0.2232,0.2223,0.2164,0.2142,0.2087,0.2064,0.2025,0.1946,0.1909,0.188,0.1841,0.1825,0.1828,0.182,0.179,0.1786,0.1783,0.1768,0.1763,0.1824,0.1824,0.1824,0,0.2431,0.2367,0.2333,0.2289,0.2259,0.2232,0.219,0.2157,0.2091,0.207,0.2071,0.1972,0.1935,0.187,0.1861,0.1838,0.1825,0.1834,0.179,0.1786,0.1782,0.1768,0.1762,0.1824,0.1824,0.1824,0.1824,0,0.2374,0.233,0.2304,0.2241,0.2208,0.2166,0.2124,0.2095,0.2076,0.2045,0.1988,0.1943,0.1887,0.187,0.1851,0.1802,0.1804,0.1798,0.18,0.178,0.1765,0.1759,0.1825,0.1825,0.1825,0.1824,0,0,0.236,0.228,0.2271,0.2242,0.2181,0.2145,0.2102,0.2048,0.2023,0.1979,0.1941,0.1875,0.187,0.1837,0.1813,0.1786,0.1757,0.1783,0.1781,0.1779,0.17,0.1704,0.1698,0.1747,0.1745,0.1744,0.1704,0,0.2326,0.2247,0.2215,0.2151,0.2109,0.2083,0.2045,0.2003,0.1974,0.1933,0.19,0.1854,0.185,0.183,0.1803,0.1766,0.174,0.1769,0.1709,0.1708,0.1722,0.169,0.1694,0.1658,0.1698,0.1697,0.1696,0,0.2275,0.223,0.2163,0.2106,0.2088,0.2054,0.2002,0.1964,0.1916,0.1896,0.186,0.1838,0.179,0.1797,0.173,0.175,0.1724,0.1703,0.17,0.1692,0.17,0.168,0.1646,0.164,0.1687,0.1688,0.1689,0,0.227,0.2194,0.2143,0.2119,0.2053,0.203,0.2001,0.1953,0.1923,0.1878,0.1858,0.1807,0.1779,0.1741,0.1705,0.1713,0.1642,0.1645,0.1623,0.1624,0.1608,0.1609,0.1567,0.1593,0.1594,0.1594,0.1594,0,0.2234,0.2193,0.214,0.2109,0.2062,0.2026,0.198,0.1949,0.1908,0.1869,0.1844,0.1808,0.1764,0.1723,0.1695,0.1643,0.1631,0.1613,0.1606,0.1615,0.1617,0.1596,0.1597,0.1592,0.1592,0.1593,0.1593,0,0.222,0.2183,0.2126,0.2068,0.2053,0.2021,0.1971,0.1939,0.1909,0.186,0.1847,0.1799,0.1749,0.171,0.1645,0.1626,0.1571,0.1564,0.1588,0.1584,0.1564,0.1566,0.1506,0.1496,0.153,0.153,0.153,0,0.2199,0.2167,0.2106,0.2079,0.2051,0.2007,0.1977,0.194,0.1908,0.1851,0.1826,0.1775,0.1731,0.1653,0.1611,0.1561,0.1552,0.1534,0.1544,0.1554,0.155,0.1552,0.1548,0.1533,0.1533,0.1532,0.1532,0,0.2165,0.2149,0.2106,0.2056,0.202,0.1979,0.1938,0.1917,0.1872,0.1839,0.1788,0.1754,0.1688,0.1636,0.1582,0.1552,0.1534,0.153,0.1522,0.153,0.1544,0.1535,0.1583,0.1531,0.1531,0.1531,0.1531,0.1531,0.2146,0.2117,0.2069,0.2022,0.1987,0.1949,0.1916,0.1882,0.1839,0.1782,0.1763,0.171,0.1663,0.1588,0.1557,0.1515,0.1514,0.1503,0.15,0.1497,0.1497,0.1553,0.1505,0.1505,0.1505,0.1505,0.1505,0,0.211,0.2079,0.2036,0.1979,0.1941,0.1929,0.1883,0.1852,0.1806,0.1764,0.1722,0.1663,0.1613,0.1568,0.1516,0.1491,0.1482,0.1478,0.1479,0.1472,0.1502,0.1513,0.1487,0.1487,0.1487,0.1487,0.1487,0.1487,0.2087,0.2036,0.2013,0.1944,0.1913,0.1861,0.1835,0.18,0.1766,0.1701,0.166,0.1631,0.1588,0.1532,0.1486,0.1474,0.1456,0.1454,0.144,0.1468,0.147,0.1472,0.1483,0.1451,0.1451,0.1414,0.1414,0.1414]},{"header":{"parameterUnit":"m.s-1","parameterCategory":1,"la1":30.2991,"la2":30.254,"lo1":-89.0895,"lo2":-89.0444,"dy":0.0017,"dx":0.0017,"nx":28,"ny":28,"refTime":"2024-08-10T03:00:00:Z","depth":0,"parameterNumber":3,"parameterNumberName":"V-component_of_WINDS"},"data":[0,0,0,0,0,0,0,0,0,0,0,0,0,0,0,0,0,0,0,0,0,0,0,0,0,0,0,0,0,0,0,0,0,0,0,0,0,0,0,0,0,0,0,0,0,0,0,0,0,0,0,0,0,0,0,0,0,0,-3.2909,-3.291,0,-3.3045,-3.3047,-3.3049,-3.3039,-3.3037,-3.3035,-3.3033,-3.3169,-3.3174,-3.3179,0,0,0,0,0,0,0,0,0,0,0,0,0,-3.2635,-3.264,-3.2908,-3.291,-3.2912,-3.3045,-3.3047,-3.3049,-3.3039,-3.3037,-3.3035,-3.3032,-3.3167,-3.3173,-3.318,0,0,0,0,0,0,0,0,0,0,0,0,0,-3.2761,-3.2642,-3.2908,-3.2923,-3.2926,-3.3045,-3.3047,-3.3049,-3.304,-3.3037,-3.3034,-3.3031,-3.3165,-3.3173,-3.3181,-3.3292,0,0,-3.3206,-3.321,0,0,0,0,0,0,0,0,-3.2754,-3.2771,-3.2919,-3.2922,-3.2926,-3.3022,-3.3,-3.3131,-3.3041,-3.2997,-3.3033,-3.303,-3.3122,-3.3134,-3.3166,-3.3298,-3.3304,-3.3207,-3.3212,-3.3215,-3.3218,0,0,0,0,0,0,0,-3.2745,-3.2765,-3.2962,-3.2921,-3.2925,-3.2922,-3.2937,-3.3025,-3.3074,-3.3,-3.3,-3.3016,-3.3123,-3.3158,-3.3169,-3.3306,-3.3206,-3.3214,-3.3219,-3.3222,-3.3537,-3.354,0,0,0,0,0,0,-3.2733,-3.2758,-3.2958,-3.2967,-3.2831,-3.2929,-3.2946,-3.2994,-3.3073,-3.3083,-3.3019,-3.3015,-3.3145,-3.3159,-3.3174,-3.3309,-3.3215,-3.3223,-3.3228,-3.3534,-3.3538,-3.3542,0,0,0,0,0,0,-3.2728,-3.2751,-3.2953,-3.2862,-3.2888,-3.2937,-3.2992,-3.2998,-3.3033,-3.3088,-3.3096,-3.3046,-3.3143,-3.3162,-3.3263,-3.3314,-3.3227,-3.3234,-3.353,-3.3535,-3.354,-3.3582,0,0,0,0,0,0,-3.272,-3.2749,-3.2793,-3.2863,-3.2892,-3.3041,-3.2995,-3.3003,-3.3048,-3.3045,-3.3115,-3.3123,-3.3143,-3.3251,-3.3271,-3.3324,-3.3241,-3.3525,-3.3532,-3.3538,-3.3576,-3.3587,-3.3597,0,0,0,0,0,-3.271,-3.2798,-3.2795,-3.2819,-3.2948,-3.3044,-3.3061,-3.3082,-3.3052,-3.3096,-3.3131,-3.3121,-3.3305,-3.3261,-3.3284,-3.334,-3.3522,-3.353,-3.3538,-3.3571,-3.3585,-3.3597,0,0,0,0,0,0,-3.2731,-3.2808,-3.2805,-3.2919,-3.2975,-3.3042,-3.3098,-3.3096,-3.3161,-3.3155,-3.3178,-3.3194,-3.3295,-3.3328,-3.3277,-3.3452,-3.341,-3.3422,-3.3427,-3.3441,-3.3452,-3.3441,-3.3247,0,0,0,0,0,-3.2749,-3.2821,-3.2884,-3.2978,-3.3007,-3.3048,-3.309,-3.3102,-3.3161,-3.3184,-3.3226,-3.3282,-3.3353,-3.3399,-3.3466,-3.3581,-3.3595,-3.363,-3.3641,-3.3649,-3.366,-3.3723,-3.3739,-3.3567,-3.3567,-3.3567,0,0,-3.2786,-3.2837,-3.2881,-3.2984,-3.3029,-3.3103,-3.3068,-3.3147,-3.3202,-3.3196,-3.3294,-3.3327,-3.3391,-3.35,-3.3549,-3.3529,-3.3711,-3.3659,-3.3666,-3.3672,-3.3732,-3.3749,-3.3763,-3.3572,-3.3571,-3.3571,0,0,-3.2892,-3.2938,-3.3022,-3.3069,-3.3138,-3.3165,-3.3185,-3.3253,-3.3275,-3.3375,-3.3372,-3.3437,-3.3557,-3.3603,-3.3642,-3.3767,-3.3761,-3.3788,-3.3845,-3.3906,-3.3919,-3.3931,-3.3976,-3.3991,-3.3799,-3.3799,-3.3799,0,-3.2929,-3.3042,-3.3065,-3.3146,-3.3191,-3.3191,-3.3275,-3.3318,-3.3406,-3.3436,-3.3413,-3.3566,-3.3609,-3.3728,-3.3759,-3.379,-3.3813,-3.378,-3.3916,-3.3928,-3.394,-3.3982,-3.3999,-3.3802,-3.3802,-3.3801,-3.3801,0,-3.3084,-3.3162,-3.3221,-3.3308,-3.336,-3.3442,-3.3476,-3.3526,-3.3533,-3.3562,-3.3664,-3.3715,-3.3794,-3.3823,-3.383,-3.3944,-3.3929,-3.3911,-3.3869,-3.3959,-3.3999,-3.4016,-3.3806,-3.3805,-3.3804,-3.3803,0,0,-3.3206,-3.3305,-3.3327,-3.3366,-3.3443,-3.3503,-3.3585,-3.3664,-3.3706,-3.3766,-3.3835,-3.3938,-3.3922,-3.3966,-3.3979,-3.4033,-3.4128,-3.4008,-3.401,-3.4028,-3.4256,-3.4269,-3.4288,-3.4125,-3.4128,-3.413,-3.4251,0,-3.3319,-3.3467,-3.349,-3.3619,-3.3691,-3.3693,-3.3764,-3.3818,-3.3848,-3.3912,-3.3944,-3.4017,-3.399,-3.4017,-3.407,-3.4105,-3.4174,-3.4097,-3.4188,-3.4191,-3.4172,-3.4309,-3.4323,-3.4434,-3.4266,-3.4269,-3.4271,0,-3.3472,-3.3538,-3.3675,-3.3743,-3.3774,-3.3838,-3.3912,-3.3975,-3.4036,-3.4054,-3.4104,-3.4111,-3.4195,-3.415,-3.4265,-3.4212,-3.4251,-3.4274,-3.4279,-3.4287,-3.4236,-3.4321,-3.447,-3.4486,-3.4296,-3.4294,-3.4292,0,-3.3547,-3.367,-3.3768,-3.3802,-3.3884,-3.3929,-3.3965,-3.4024,-3.407,-3.4134,-3.4164,-3.4237,-3.4277,-3.4332,-3.4358,-3.4323,-3.4472,-3.4429,-3.4488,-3.4487,-3.4519,-3.4516,-3.4675,-3.4544,-3.4544,-3.4544,-3.4543,0,-3.3671,-3.3754,-3.3803,-3.3863,-3.3957,-3.3983,-3.4074,-3.4108,-3.4161,-3.4227,-3.4232,-3.4294,-3.4324,-3.439,-3.441,-3.4503,-3.4521,-3.4536,-3.4541,-3.4536,-3.4534,-3.4561,-3.4554,-3.4548,-3.4547,-3.4546,-3.4545,0,-3.377,-3.3806,-3.3913,-3.3983,-3.4002,-3.4068,-3.4127,-3.4185,-3.4215,-3.4298,-3.4319,-3.4365,-3.4443,-3.4474,-3.4569,-3.4583,-3.4689,-3.4687,-3.4669,-3.467,-3.4728,-3.4722,-3.4909,-3.4935,-3.4787,-3.4788,-3.4789,0,-3.3847,-3.3911,-3.3989,-3.4034,-3.4072,-3.4145,-3.4193,-3.4221,-3.427,-3.4346,-3.4395,-3.4473,-3.4537,-3.4661,-3.4702,-3.4775,-3.4775,-3.4835,-3.4785,-3.4779,-3.4775,-3.4771,-3.4778,-3.4844,-3.4846,-3.4847,-3.4848,0,-3.3979,-3.3994,-3.4064,-3.414,-3.4197,-3.4258,-3.4317,-3.4354,-3.4391,-3.4446,-3.4527,-3.4577,-3.4675,-3.4752,-3.4827,-3.4862,-3.4862,-3.4864,-3.4881,-3.4877,-3.4863,-3.4871,-3.4694,-3.4859,-3.4858,-3.4857,-3.4856,-3.4856,-3.4069,-3.4127,-3.4191,-3.4268,-3.4316,-3.4372,-3.443,-3.4468,-3.4537,-3.462,-3.4632,-3.4718,-3.4778,-3.488,-3.4918,-3.4985,-3.4969,-3.4995,-3.5001,-3.5007,-3.5011,-3.4853,-3.4999,-3.4999,-3.4998,-3.4998,-3.4998,0,-3.4202,-3.4244,-3.4315,-3.4398,-3.4459,-3.4455,-3.4521,-3.4571,-3.4648,-3.4705,-3.4769,-3.4862,-3.4937,-3.4985,-3.506,-3.5105,-3.5106,-3.5124,-3.512,-3.5129,-3.5021,-3.4998,-3.5122,-3.5121,-3.5121,-3.5121,-3.5121,-3.5121,-3.4278,-3.4375,-3.4398,-3.452,-3.456,-3.4647,-3.4685,-3.4736,-3.4782,-3.4886,-3.495,-3.4981,-3.5034,-3.5114,-3.5182,-3.5194,-3.5222,-3.524,-3.5251,-3.5149,-3.5136,-3.5124,-3.5103,-3.5246,-3.5246,-3.5353,-3.5354,-3.5355]}]]